Location: Palomar Mountain Lodge
(33.3110°N, 116.8495°W)
Time: 13:56:20
(UTC-07:00)

ATLAS CENTAUR R/B - Pass Details

Date: 12 July 2018
Orbit: 460 x 692 km, 64.7° (Epoch: 10 August)

Event Time Altitude Azimuth Distance (km) Brightness Sun altitude
Rises 22:04:07 0° 226° (SW) 2,512 4.7 -21.7°
Reaches altitude 10° 22:06:18 10° 236° (SW) 1,663 3.8 -22.0°
Maximum altitude 22:09:43 35° 304° (WNW) 826 2.7 -22.5°
Drops below altitude 10° 22:13:23 10° 11° (N) 1,778 4.4 -23.0°
Sets 22:15:48 0° 20° (NNE) 2,716 5.3 -23.3°
